CDT,Max TemperatureF,Mean TemperatureF,Min TemperatureF,Max Dew PointF,MeanDew PointF,Min DewpointF,Max Humidity, Mean Humidity, Min Humidity, Max Sea Level PressureIn, Mean Sea Level PressureIn, Min Sea Level PressureIn, Max VisibilityMiles, Mean VisibilityMiles, Min VisibilityMiles, Max Wind SpeedMPH, Mean Wind SpeedMPH, Max Gust SpeedMPH,PrecipitationIn, CloudCover, Events, WindDirDegrees
2013-8-1,84,73,62,68,65,59,100,80,45,30.10,30.04,29.92,10,9,4,8,4,13,0.00,2,,239
2013-8-2,75,70,64,68,65,59,88,83,69,30.01,29.94,29.91,10,10,9,9,5,,0.00,4,,249
2013-8-3,71,66,60,63,61,57,100,89,64,30.19,30.06,30.02,10,10,9,9,5,,0.00,4,,20
2013-8-4,78,68,57,63,58,55,94,76,54,30.20,30.15,30.07,10,10,7,12,4,,0.00,2,,100
2013-8-5,80,73,66,72,68,63,94,85,70,30.06,29.95,29.84,10,9,6,14,6,18,0.00,6,,189
2013-8-6,87,76,66,75,70,63,100,80,55,29.91,29.85,29.80,10,8,0,14,4,20,0.01,3,Fog,193
2013-8-7,80,73,66,72,67,63,100,81,58,30.02,29.91,29.79,10,9,3,14,5,21,0.28,2,Rain,348
2013-8-8,78,69,60,64,62,59,100,82,57,30.04,30.01,29.97,10,10,7,9,4,,0.00,2,,43
2013-8-9,80,72,64,66,63,59,94,85,54,30.14,30.06,30.02,10,9,6,7,2,,0.00,4,,317
2013-8-10,78,68,57,61,58,55,94,87,51,30.21,30.17,30.13,10,9,7,8,4,,0.00,0,,21
2013-8-11,78,70,62,64,60,59,88,81,61,30.15,30.11,30.03,10,10,9,10,7,18,0.00,0,,188
2013-8-12,80,71,62,70,62,57,94,71,48,30.07,30.02,29.99,10,10,8,14,6,18,0.00,2,,345
2013-8-13,77,66,55,61,57,54,94,74,44,30.19,30.11,30.06,10,9,7,14,6,15,0.00,1,,8
2013-8-14,73,63,53,55,52,46,94,69,41,30.24,30.19,30.14,10,10,9,8,3,,0.00,4,,112
2013-8-15,66,62,59,59,55,52,88,77,64,30.17,30.14,30.10,10,10,1,8,5,14,0.05,6,Rain,157
2013-8-16,73,63,53,57,54,52,94,80,50,30.21,30.18,30.14,10,10,10,9,5,,0.00,0,,98
2013-8-17,78,66,53,59,55,52,100,82,44,30.23,30.20,30.15,10,10,3,7,2,,0.00,1,,120
2013-8-18,75,66,57,63,57,54,94,83,61,30.20,30.15,30.09,10,10,10,8,5,,0.00,3,,155
2013-8-19,84,70,57,66,60,55,100,76,45,30.12,30.07,30.01,10,9,3,14,6,16,0.00,1,,183
2013-8-20,87,76,64,68,64,61,88,70,48,30.06,30.02,29.97,10,10,9,16,9,22,0.00,2,,188
2013-8-21,89,78,68,72,67,64,94,74,46,30.06,30.02,29.99,10,10,7,15,10,21,0.00,0,,204
2013-8-22,82,76,71,70,68,66,94,82,62,30.12,30.07,30.02,10,10,7,12,7,,0.00,2,,177
2013-8-23,86,77,68,73,70,68,100,87,58,30.14,30.10,30.05,10,6,0,9,6,14,0.00,5,Fog,123
2013-8-24,87,78,69,73,68,66,94,80,52,30.17,30.13,30.08,10,9,6,13,9,22,0.00,1,,159
2013-8-25,91,80,69,72,67,64,83,70,46,30.21,30.16,30.11,10,10,9,17,10,23,0.00,0,,186
2013-8-26,95,82,69,72,69,68,94,68,41,30.15,30.09,30.01,10,9,4,14,9,21,0.00,0,,207
2013-8-27,95,84,73,70,68,66,88,63,39,30.02,29.97,29.92,10,10,10,20,11,28,0.00,0,,221
2013-8-28,95,83,71,68,66,64,78,59,36,30.03,30.00,29.96,10,10,9,13,8,20,0.00,0,,242
2013-8-29,93,80,68,75,69,66,94,70,44,30.07,30.01,29.95,10,10,9,10,5,17,0.00,1,,176
2013-8-30,98,84,71,73,69,64,94,63,32,29.95,29.88,29.81,10,10,7,13,7,20,0.00,0,,228
2013-8-31,91,80,69,75,71,64,100,77,41,29.86,29.83,29.79,10,9,5,10,5,15,0.00,1,,324